DateTimeUTC,F1_A11,F1_S11,BsB_S11,BsG_S11,BsR_S11,BbsB_S11,BbsG_S11,BbsR_S11,BaB_A11,BaG_A11,BaR_A11,Tu_S11,T_S11,Uu_S11,U_S11,P_S11,T1_A11
2021-11-15T10:00:00Z,00000200,21000000,,,,,,,0000.10,-000.02,0000.35,20.3,27.1,,00.0,0626.1,31.2
2021-11-15T10:01:00Z,00000200,21000000,,,,,,,0000.62,0000.43,0000.22,20.2,27.1,,00.0,0626.1,31.2
2021-11-15T10:02:00Z,00000200,21000000,,,,,,,0000.00,0000.41,0000.03,20.2,27.2,,00.0,0626.1,31.2
2021-11-15T10:03:00Z,00000200,61000000,,,,,,,-000.04,-000.25,0000.07,20.2,27.2,,00.0,0626.1,31.1
2021-11-15T10:04:00Z,00000200,41000000,0000.05,0000.14,-000.07,0000.23,-000.16,0000.16,-000.31,0000.34,0000.09,20.2,27.0,,00.0,0626.9,31.1
2021-11-15T10:05:00Z,00000200,01000000,-000.26,-000.11,-000.30,-000.21,0000.05,-000.29,0000.74,0000.45,0000.38,20.2,26.9,,00.0,0627.0,31.2
2021-11-15T10:06:00Z,00000200,01000000,0000.55,0000.25,0000.13,-000.48,0000.18,0000.04,0000.32,-000.14,-000.17,20.2,26.9,,00.0,0627.1,31.2
2021-11-15T10:07:00Z,00000200,01000000,0000.06,-000.02,-000.17,-000.24,0000.15,0000.16,0000.07,0000.32,0000.31,20.3,26.8,,00.0,0627.1,31.1
2021-11-15T10:08:00Z,00000200,01000000,0000.34,-000.09,-000.12,-000.35,0000.08,0000.50,0000.34,0000.56,0000.53,20.3,26.9,,00.0,0627.1,31.1
2021-11-15T10:09:00Z,00000200,01000000,0000.14,-000.10,-000.23,-000.21,0000.12,-000.13,0000.09,0000.20,-000.21,20.3,26.9,,00.0,0627.1,31.1
2021-11-15T10:10:00Z,00000200,01000000,0000.14,-000.10,0000.01,-000.11,-000.06,0000.26,0000.23,-000.56,-000.14,20.4,26.9,,00.0,0627.1,31.2
2021-11-15T10:11:00Z,00000200,01000000,0000.10,0000.14,-000.35,-000.30,0000.25,-000.10,0000.13,0000.62,0000.09,20.5,26.9,,00.0,0627.1,31.2
2021-11-15T10:12:00Z,00000200,01000000,-000.18,-000.12,0000.29,0000.11,0000.11,-000.44,0000.21,-000.20,0000.45,20.5,27.0,,00.0,0627.2,31.2
2021-11-15T10:13:00Z,00000200,01000000,0000.18,0000.09,0000.11,0000.24,-000.00,0000.03,-000.19,0000.23,-000.28,20.5,27.0,,00.0,0627.1,31.2
2021-11-15T10:14:00Z,00000200,01000000,0000.14,0000.16,-000.08,-000.28,0000.20,-000.08,0000.37,0000.10,0000.22,20.4,27.0,,00.0,0627.1,31.1
2021-11-15T10:15:00Z,00000200,01000000,0000.76,0000.10,0000.02,0000.23,-000.03,0000.24,-000.18,-000.35,0000.16,20.4,27.0,,00.0,0627.1,31.1
2021-11-15T10:16:00Z,00000200,01000000,0000.10,0000.25,-000.19,0000.26,0000.08,0000.17,0000.33,0000.39,-000.46,20.3,26.9,,00.0,0627.1,31.1
2021-11-15T10:17:00Z,00000200,01000000,0000.42,0000.40,-000.01,0000.14,0000.10,-000.33,-000.41,0000.30,0000.07,20.2,26.9,,00.0,0627.1,31.1
2021-11-15T10:18:00Z,00000200,01000000,0000.41,0000.03,0000.18,-000.32,-000.07,0000.02,0000.73,0000.01,0000.25,20.2,26.8,,00.0,0627.1,31.1
2021-11-15T10:19:00Z,00000200,01000000,0000.34,0000.06,-000.13,0000.14,-000.25,-000.26,-000.46,-000.19,0000.02,20.1,26.8,,00.0,0627.2,31.1
2021-11-15T10:20:00Z,00000200,01000000,0000.19,0000.18,0000.17,-000.03,0000.12,0000.20,0000.47,0000.16,-000.02,20.1,26.7,,00.0,0627.2,31.1
2021-11-15T10:21:00Z,00000200,01000000,0000.46,0000.13,-000.14,0000.11,0000.35,-000.29,0000.33,0000.62,0000.29,20.0,26.7,,00.0,0627.1,31.1
2021-11-15T10:22:00Z,00000200,01000000,0000.36,0000.38,0000.23,-000.20,0000.40,-000.08,0003.76,0003.35,0003.25,20.1,26.7,,00.0,0627.1,31.1
2021-11-15T10:23:00Z,00000200,01000000,0000.87,0000.54,0000.24,0000.35,0000.67,0000.17,0008.03,0007.84,0005.90,20.1,26.7,,00.0,0627.1,31.1
2021-11-15T10:24:00Z,00000200,01000000,0003.24,0002.56,0001.33,0000.58,0000.50,0000.04,0033.28,0030.53,0025.07,20.1,26.7,,00.0,0627.2,31.1
2021-11-15T10:25:00Z,00000200,01000000,0010.45,0008.11,0005.12,0002.69,0002.21,0001.48,0123.50,0114.74,0093.77,20.2,26.8,,00.0,0627.2,31.1
2021-11-15T10:26:00Z,00000200,01000000,0019.54,0014.46,0009.54,0003.83,0003.81,0002.77,0224.64,0210.71,0172.14,20.3,26.8,,00.0,0627.3,31.1
2021-11-15T10:27:00Z,00000200,01000000,0017.65,0012.37,0008.19,0002.79,0002.96,0002.08,0198.33,0185.23,0152.30,20.3,26.8,,00.0,0627.3,31.1
2021-11-15T10:28:00Z,00000200,01000000,0014.52,0011.68,0007.58,0003.65,0002.37,0002.13,0178.87,0167.24,0137.87,20.4,26.8,,00.0,0627.3,31.1
2021-11-15T10:29:00Z,00000200,01000000,0011.88,0009.08,0005.31,0002.86,0001.94,0001.45,0145.88,0136.90,0112.21,20.4,26.8,,00.0,0627.3,31.2
2021-11-15T10:30:00Z,00000200,01000000,0009.80,0006.88,0004.57,0002.23,0001.49,0001.24,0107.79,0101.01,0083.11,20.5,26.9,,00.0,0627.3,31.2
2021-11-15T10:31:00Z,00000200,01000000,0011.25,0007.91,0005.01,0002.38,0002.14,0001.30,0120.09,0112.04,0091.85,20.5,26.9,,00.0,0627.4,31.2
2021-11-15T10:32:00Z,00000200,01000000,0014.08,0010.00,0006.45,0002.76,0002.44,0001.97,0158.99,0148.93,0122.26,20.5,26.9,,00.0,0627.3,31.2
2021-11-15T10:33:00Z,00000200,01000000,0015.34,0011.35,0006.93,0002.73,0002.49,0001.65,0174.18,0162.40,0132.71,20.4,26.9,,00.0,0627.4,31.2
2021-11-15T10:34:00Z,00000200,01000000,0015.89,0011.34,0007.45,0003.05,0002.51,0001.84,0176.07,0164.69,0135.16,20.3,26.9,,00.0,0627.4,31.1
2021-11-15T10:35:00Z,00000200,01000000,0016.91,0011.76,0007.44,0003.56,0002.49,0002.53,0185.16,0172.85,0142.44,20.3,26.8,,00.0,0627.4,31.1
2021-11-15T10:36:00Z,00000200,01000000,0015.03,0011.18,0006.81,0002.43,0002.35,0001.62,0168.69,0158.39,0130.11,20.3,26.8,,00.0,0627.4,31.1
2021-11-15T10:37:00Z,00000200,01000000,0016.05,0012.08,0007.43,0002.76,0002.66,0002.26,0182.25,0170.77,0140.67,20.3,26.8,,00.0,0627.4,31.1
2021-11-15T10:38:00Z,00000200,01000000,0010.94,0008.42,0005.34,0001.93,0002.12,0001.24,0128.49,0120.48,0100.03,20.4,26.8,,00.0,0627.4,31.2
2021-11-15T10:39:00Z,00000200,01000000,0007.86,0005.40,0002.97,0001.73,0001.10,0000.35,0083.14,0078.18,0064.34,20.4,26.9,,00.0,0627.4,31.2
2021-11-15T10:40:00Z,00000200,01000000,0003.58,0002.53,0001.32,0000.56,0000.68,0000.50,0040.46,0038.39,0031.49,20.4,26.9,,00.0,0627.4,31.2
2021-11-15T10:41:00Z,00000200,01000000,0000.91,0000.82,0000.17,0000.38,0000.02,0000.21,0013.43,0012.62,0010.41,20.5,26.9,,00.0,0627.5,31.2
2021-11-15T10:42:00Z,00000200,01000000,0000.53,0000.06,-000.33,0000.53,0000.02,-000.10,0004.16,0003.91,0003.42,20.5,26.9,,00.0,0627.4,31.2
2021-11-15T10:43:00Z,00000200,01000000,0000.09,-000.10,-000.19,0000.07,0000.24,0000.04,0002.32,0002.26,0001.88,20.4,26.9,,00.0,0627.5,31.2
2021-11-15T10:44:00Z,00000200,01000000,0000.26,0000.04,-000.23,0000.26,-000.09,0000.16,0001.47,0001.40,0000.98,20.4,26.9,,00.0,0627.5,31.1
2021-11-15T10:45:00Z,00000200,01000000,0000.12,0000.27,-000.21,-000.40,-000.21,0000.01,0000.89,0001.04,0000.61,20.3,26.9,,00.0,0627.5,31.1
2021-11-15T10:46:00Z,00000200,01000000,0000.77,-000.30,-000.25,-000.31,-000.02,0000.02,0001.51,0000.98,0001.28,20.2,26.8,,00.0,0627.4,31.1
2021-11-15T10:47:00Z,00000200,01000000,0000.32,0000.26,0000.21,-000.32,-000.01,0000.12,0000.63,0000.52,0000.63,20.2,26.8,,00.0,0627.4,31.1
2021-11-15T10:48:00Z,00000200,01000000,0000.38,0000.10,0000.05,-000.16,-000.11,-000.35,0001.05,0001.28,0000.77,20.1,26.7,,00.0,0627.3,31.1
2021-11-15T10:49:00Z,00000200,01000000,0000.04,0000.37,0000.04,-000.57,0000.08,-000.02,0000.71,0000.89,0000.31,20.0,26.7,,00.0,0627.3,31.1
2021-11-15T10:50:00Z,00000200,01000000,0001.36,-000.01,0000.13,0000.09,-000.01,0000.06,0000.84,0000.38,0000.73,20.0,26.6,,00.0,0627.3,31.1
2021-11-15T10:51:00Z,00000200,01000000,0000.58,0000.08,-000.07,0000.02,0000.21,-000.22,0000.93,0000.90,0000.20,20.0,26.6,,00.0,0627.4,31.1
2021-11-15T10:52:00Z,00000200,01000000,0000.26,0000.06,-000.15,-000.14,-000.17,-000.11,0000.59,0000.45,0000.92,20.0,26.6,,00.0,0627.4,31.1
2021-11-15T10:53:00Z,00000200,01000000,-000.04,-000.08,-000.09,-000.02,0000.00,-000.23,0000.54,0000.97,0000.60,20.0,26.6,,00.0,0627.4,31.1
2021-11-15T10:54:00Z,00000200,01000000,-000.80,-000.14,-000.04,0000.08,0000.22,0000.04,0000.96,0000.45,0000.51,20.1,26.6,,00.0,0627.4,31.1
2021-11-15T10:55:00Z,00000200,01000000,0000.32,0000.29,-000.12,-000.41,0000.01,0000.01,0000.29,0000.78,0000.16,20.1,26.7,,00.0,0627.4,31.1
2021-11-15T10:56:00Z,00000200,01000000,0000.14,0000.29,-000.18,-000.52,-000.07,-000.04,0000.77,0000.05,0000.53,20.2,26.7,,00.0,0627.4,31.1
2021-11-15T10:57:00Z,00000200,41000000,,,,,,,0002.04,0002.16,0001.88,20.3,26.7,,00.0,0627.4,31.1
2021-11-15T10:58:00Z,00000200,61000000,,,,,,,0000.75,0000.90,0000.44,20.0,26.8,,00.0,0626.6,31.1
2021-11-15T10:59:00Z,00000200,21000000,,,,,,,0000.61,0000.33,0000.49,20.0,26.9,,00.0,0626.6,31.1
